Find Starlink 5119

NORAD ID: 53986 Int'l Des: 2022-125 Owner: SPXS Country: US Constellation: starlink operational
LEOCIRCULAR

实时位置

正在加载3D地球...

关于 Starlink 5119

正在加载描述...

即将过境

Passes for default location (London). Set your location on the main map for personalized predictions.

高度历史

Loading altitude history...

两行轨道根数

1 53986U 22125Y 26104.96407108 -.00000157 00000-0 82254-5 0 9991
2 53986 53.2179 40.9588 0001487 84.6415 275.4747 15.08833317195079
Epoch: Apr 14, 2026 • Age: 6 hours

当前状态

高度 549.7 km
速度 7.59 km/s
星下点 -30.18°S, 30.94°W
发射日期 Oct 5, 2022
运行时间 3.5 years
类型 internet

技术详情

分类 Payload
质量 305.00 kg
干质量 290.00 kg
总质量 305.00 kg
长度 0.20 m
直径 2.80 m
跨度 9.00 m
形状 Box + pan
制造商 SPXS
平台类型 Starlink
阶段状态 In Orbit
所有者/国家 SPXS/US

Most Searched